AZU8721 KFLL-SBBE

Flight info

Callsign AZU8721
Flight time 5h 38m
Altitude 35000
Route SNAPR2 SUMAC Y443 RUMFO Y441 JUELE UL463 PTA UL343 SATOE L343 ANADA DCT KORTO UG449 OTONI UZ41 VUSNA
Aircraft A320/M-SDE3FGHIRWY/LB1

Departure

Time 2026-05-09 02:05
Airport Fort Lauderdale Hollywood International Airport (KFLL)

Arrival

Time 2026-05-09 07:43
Airport Val de Cans/Júlio Cezar Ribeiro International Airport (SBBE)
Time Latitude Longitude Altitude Speed Heading
2026-05-09 01:26 26.07368 -80.14015 16 ft 0 kts 271°
2026-05-09 01:48 26.07367 -80.13997 16 ft 3 kts 279°
2026-05-09 01:49 26.07362 -80.13976 19 ft 3 kts 302°
2026-05-09 01:49 26.07350 -80.13961 17 ft 3 kts 341°
2026-05-09 01:49 26.07338 -80.13958 19 ft 1 kts
2026-05-09 01:49 26.07335 -80.13958 19 ft 0 kts
2026-05-09 01:56 26.07340 -80.13958 16 ft 3 kts
2026-05-09 01:57 26.07388 -80.13958 16 ft 10 kts
2026-05-09 01:57 26.07455 -80.13961 16 ft 9 kts 344°
2026-05-09 01:57 26.07485 -80.14014 16 ft 11 kts 274°
2026-05-09 01:57 26.07485 -80.14116 16 ft 14 kts 270°
2026-05-09 01:58 26.07486 -80.14213 16 ft 12 kts 270°
2026-05-09 01:58 26.07487 -80.14295 16 ft 10 kts 270°
2026-05-09 01:58 26.07487 -80.14377 16 ft 13 kts 270°
2026-05-09 01:58 26.07487 -80.14499 16 ft 18 kts 270°
2026-05-09 01:59 26.07488 -80.14647 16 ft 19 kts 270°
2026-05-09 01:59 26.07488 -80.14782 16 ft 16 kts 269°
2026-05-09 01:59 26.07488 -80.14914 16 ft 18 kts 270°
2026-05-09 01:59 26.07489 -80.15066 16 ft 21 kts 270°
2026-05-09 02:00 26.07489 -80.15243 15 ft 24 kts 270°
2026-05-09 02:00 26.07491 -80.15405 15 ft 19 kts 271°
2026-05-09 02:00 26.07492 -80.15546 15 ft 17 kts 270°
2026-05-09 02:00 26.07492 -80.15669 16 ft 15 kts 270°
2026-05-09 02:01 26.07493 -80.15776 15 ft 13 kts 270°
2026-05-09 02:01 26.07493 -80.15891 16 ft 18 kts 270°
2026-05-09 02:01 26.07494 -80.16046 16 ft 20 kts 270°
2026-05-09 02:01 26.07495 -80.16192 16 ft 18 kts 270°
2026-05-09 02:02 26.07496 -80.16303 16 ft 12 kts 270°
2026-05-09 02:02 26.07496 -80.16391 16 ft 13 kts 270°
2026-05-09 02:02 26.07497 -80.16505 16 ft 15 kts 270°
2026-05-09 02:02 26.07499 -80.16613 16 ft 13 kts 283°
2026-05-09 02:03 26.07565 -80.16644 16 ft 10 kts
2026-05-09 02:03 26.07597 -80.16643 16 ft 0 kts
2026-05-09 02:04 26.07600 -80.16643 16 ft 3 kts
2026-05-09 02:04 26.07611 -80.16643 17 ft 5 kts 360°
2026-05-09 02:04 26.07684 -80.16629 18 ft 16 kts 46°
2026-05-09 02:04 26.07695 -80.16476 19 ft 24 kts 90°
2026-05-09 02:05 26.07693 -80.16098 19 ft 83 kts 90°
2026-05-09 02:05 26.07687 -80.15228 16 ft 139 kts 90°
2026-05-09 02:05 26.07680 -80.14022 312 ft 159 kts 89°
2026-05-09 02:05 26.07674 -80.12810 996 ft 156 kts 89°
2026-05-09 02:06 26.07696 -80.11572 1499 ft 166 kts 89°
2026-05-09 02:06 26.07724 -80.10206 1699 ft 188 kts 90°
2026-05-09 02:06 26.07750 -80.08667 1866 ft 210 kts 90°
2026-05-09 02:07 26.07793 -80.05086 2417 ft 251 kts 90°
2026-05-09 02:07 26.07814 -80.03111 3030 ft 258 kts 89°
2026-05-09 02:07 26.07830 -80.01100 3748 ft 262 kts 89°
2026-05-09 02:07 26.07835 -79.99068 4488 ft 265 kts 89°
2026-05-09 02:08 26.07820 -79.96995 5147 ft 271 kts 89°
2026-05-09 02:08 26.07795 -79.94880 5817 ft 275 kts 89°
2026-05-09 02:08 26.07767 -79.92738 6499 ft 280 kts 90°
2026-05-09 02:08 26.07739 -79.90558 7134 ft 284 kts 91°
2026-05-09 02:09 26.07713 -79.88348 7760 ft 288 kts 91°
2026-05-09 02:09 26.07688 -79.86109 8397 ft 292 kts 92°
2026-05-09 02:09 26.07656 -79.83840 9023 ft 295 kts 95°
2026-05-09 02:09 26.07327 -79.81588 9636 ft 296 kts 106°
2026-05-09 02:10 26.06843 -79.79350 10191 ft 301 kts 106°
2026-05-09 02:10 26.06332 -79.77003 10323 ft 323 kts 106°
2026-05-09 02:10 26.05789 -79.74502 10440 ft 343 kts 105°
2026-05-09 02:10 26.05219 -79.71860 10621 ft 358 kts 105°
2026-05-09 02:11 26.04634 -79.69139 11044 ft 365 kts 105°
2026-05-09 02:11 26.04041 -79.66387 11541 ft 368 kts 105°
2026-05-09 02:11 26.03440 -79.63598 12056 ft 372 kts 105°
2026-05-09 02:11 26.02806 -79.60798 12554 ft 375 kts 106°
2026-05-09 02:12 26.02144 -79.57979 13059 ft 379 kts 106°
2026-05-09 02:12 26.01466 -79.55139 13558 ft 382 kts 106°
2026-05-09 02:12 26.00777 -79.52268 14023 ft 386 kts 106°
2026-05-09 02:12 26.00086 -79.49374 14460 ft 389 kts 106°
2026-05-09 02:13 25.99393 -79.46454 14893 ft 393 kts 106°
2026-05-09 02:13 25.98697 -79.43507 15322 ft 396 kts 106°
2026-05-09 02:13 25.97998 -79.40536 15753 ft 399 kts 106°
2026-05-09 02:13 25.97226 -79.37612 16172 ft 401 kts 112°
2026-05-09 02:14 25.96221 -79.34714 16591 ft 404 kts 113°
2026-05-09 02:14 25.95205 -79.31798 17012 ft 407 kts 113°
2026-05-09 02:14 25.94181 -79.28858 17431 ft 410 kts 113°
2026-05-09 02:14 25.93149 -79.25896 17840 ft 413 kts 113°
2026-05-09 02:15 25.92107 -79.22902 18242 ft 416 kts 113°
2026-05-09 02:15 25.91061 -79.19895 18589 ft 420 kts 113°
2026-05-09 02:15 25.90004 -79.16856 18920 ft 423 kts 113°
2026-05-09 02:15 25.88940 -79.13797 19239 ft 426 kts 113°
2026-05-09 02:16 25.87867 -79.10717 19560 ft 430 kts 113°
2026-05-09 02:16 25.86782 -79.07608 19887 ft 434 kts 113°
2026-05-09 02:16 25.85684 -79.04475 20205 ft 437 kts 112°
2026-05-09 02:16 25.84575 -79.01320 20524 ft 440 kts 112°
2026-05-09 02:17 25.83459 -78.98141 20842 ft 443 kts 112°
2026-05-09 02:17 25.82337 -78.94945 21178 ft 446 kts 112°
2026-05-09 02:17 25.81211 -78.91731 21487 ft 449 kts 112°
2026-05-09 02:17 25.80075 -78.88492 21786 ft 452 kts 112°
2026-05-09 02:18 25.78929 -78.85231 22082 ft 455 kts 112°
2026-05-09 02:18 25.77775 -78.81948 22380 ft 458 kts 112°
2026-05-09 02:18 25.76609 -78.78640 22671 ft 462 kts 112°
2026-05-09 02:18 25.75434 -78.75313 22961 ft 465 kts 112°
2026-05-09 02:19 25.74168 -78.72010 23235 ft 467 kts 118°
2026-05-09 02:19 25.72494 -78.68924 23512 ft 468 kts 126°
2026-05-09 02:19 25.70651 -78.65935 23752 ft 471 kts 126°
2026-05-09 02:19 25.68802 -78.62931 23993 ft 473 kts 126°
2026-05-09 02:20 25.66948 -78.59905 24242 ft 475 kts 126°
2026-05-09 02:20 25.65088 -78.56870 24500 ft 477 kts 126°
2026-05-09 02:20 25.63220 -78.53822 24740 ft 479 kts 126°
2026-05-09 02:20 25.61430 -78.50909 24970 ft 480 kts 126°
2026-05-09 02:21 25.59548 -78.47843 25210 ft 482 kts 124°
2026-05-09 02:21 25.57948 -78.44668 25436 ft 486 kts 115°
2026-05-09 02:21 25.56758 -78.41157 25669 ft 488 kts 106°
2026-05-09 02:21 25.55858 -78.37564 25901 ft 490 kts 105°
2026-05-09 02:22 25.54939 -78.33928 26145 ft 492 kts 106°
2026-05-09 02:22 25.54004 -78.30276 26385 ft 494 kts 106°
2026-05-09 02:22 25.53060 -78.26610 26623 ft 495 kts 106°
2026-05-09 02:22 25.52114 -78.22943 26857 ft 497 kts 106°
2026-05-09 02:23 25.51176 -78.19305 27093 ft 499 kts 106°
2026-05-09 02:23 25.50223 -78.15608 27310 ft 500 kts 106°
2026-05-09 02:23 25.49255 -78.11856 27535 ft 502 kts 106°
2026-05-09 02:23 25.48309 -78.08186 27746 ft 503 kts 106°
2026-05-09 02:24 25.47348 -78.04454 27952 ft 505 kts 106°
2026-05-09 02:24 25.46385 -78.00716 28158 ft 507 kts 106°
2026-05-09 02:24 25.45416 -77.96955 28353 ft 508 kts 106°
2026-05-09 02:24 25.44445 -77.93194 28576 ft 509 kts 106°
2026-05-09 02:25 25.43506 -77.89567 28776 ft 510 kts 106°
2026-05-09 02:25 25.42561 -77.85923 28969 ft 511 kts 106°
2026-05-09 02:25 25.41586 -77.82171 29164 ft 512 kts 106°
2026-05-09 02:25 25.40601 -77.78372 29353 ft 514 kts 106°
2026-05-09 02:26 25.39614 -77.74574 29581 ft 514 kts 106°
2026-05-09 02:26 25.38625 -77.70777 29861 ft 514 kts 106°
2026-05-09 02:26 25.37635 -77.66983 30133 ft 513 kts 106°
2026-05-09 02:26 25.36649 -77.63212 30366 ft 513 kts 106°
2026-05-09 02:27 25.35684 -77.59526 30586 ft 512 kts 106°
2026-05-09 02:27 25.34691 -77.55742 30823 ft 511 kts 106°
2026-05-09 02:27 25.33700 -77.51971 31064 ft 511 kts 106°
2026-05-09 02:27 25.32710 -77.48206 31299 ft 510 kts 106°
2026-05-09 02:28 25.31725 -77.44450 31536 ft 509 kts 106°
2026-05-09 02:28 25.30714 -77.40700 31765 ft 508 kts 110°
2026-05-09 02:28 25.29850 -77.38301 31920 ft 507 kts 116°
2026-05-09 02:28 25.27482 -77.33819 32212 ft 504 kts 128°
2026-05-09 02:29 25.25474 -77.31152 32411 ft 501 kts 136°
2026-05-09 02:29 25.22876 -77.28379 32633 ft 500 kts 139°
2026-05-09 02:29 25.20354 -77.25742 32853 ft 500 kts 139°
2026-05-09 02:29 25.17862 -77.23135 33074 ft 499 kts 139°
2026-05-09 02:30 25.17807 -77.23077 33081 ft 499 kts 139°
2026-05-09 02:32 25.14910 -77.20039 33356 ft 498 kts 139°
2026-05-09 02:32 25.12401 -77.17408 33590 ft 498 kts 139°
2026-05-09 02:32 25.09891 -77.14779 33812 ft 497 kts 139°
2026-05-09 02:32 25.07386 -77.12156 34037 ft 496 kts 139°
2026-05-09 02:33 25.04884 -77.09541 34264 ft 495 kts 139°
2026-05-09 02:33 25.02389 -77.06935 34488 ft 494 kts 139°
2026-05-09 02:33 24.99894 -77.04333 34698 ft 493 kts 139°
2026-05-09 02:33 24.97407 -77.01740 34904 ft 492 kts 139°
2026-05-09 02:34 24.94922 -76.99152 35022 ft 492 kts 139°
2026-05-09 02:34 24.89959 -76.93984 35056 ft 490 kts 139°
2026-05-09 02:35 24.84999 -76.88823 35059 ft 490 kts 139°
2026-05-09 02:35 24.80041 -76.83680 35061 ft 489 kts 139°
2026-05-09 02:36 24.75085 -76.78551 35063 ft 489 kts 139°
2026-05-09 02:36 24.70139 -76.73417 35059 ft 489 kts 139°
2026-05-09 02:37 24.65197 -76.68285 35073 ft 488 kts 139°
2026-05-09 02:37 24.60259 -76.63170 35075 ft 488 kts 139°
2026-05-09 02:38 24.55311 -76.58070 35071 ft 488 kts 139°
2026-05-09 02:38 24.50396 -76.53002 35073 ft 488 kts 139°
2026-05-09 02:39 24.45418 -76.47870 35078 ft 488 kts 139°
2026-05-09 02:39 24.40507 -76.42811 35079 ft 488 kts 139°
2026-05-09 02:40 24.35526 -76.37688 35073 ft 487 kts 139°
2026-05-09 02:40 24.30620 -76.32651 35078 ft 486 kts 139°
2026-05-09 02:41 24.25682 -76.27581 35081 ft 486 kts 139°
2026-05-09 02:41 24.20752 -76.22530 35079 ft 485 kts 139°
2026-05-09 02:42 24.15817 -76.17486 35074 ft 485 kts 139°
2026-05-09 02:42 24.10891 -76.12444 35077 ft 485 kts 139°
2026-05-09 02:43 24.05961 -76.07406 35076 ft 485 kts 139°
2026-05-09 02:43 24.01034 -76.02380 35073 ft 484 kts 139°
2026-05-09 02:44 23.96107 -75.97359 35068 ft 484 kts 139°
2026-05-09 02:44 23.91183 -75.92339 35064 ft 484 kts 139°
2026-05-09 02:45 23.86252 -75.87329 35062 ft 484 kts 139°
2026-05-09 02:45 23.81321 -75.82321 35058 ft 484 kts 139°
2026-05-09 02:46 23.76416 -75.77353 35056 ft 484 kts 139°
2026-05-09 02:46 23.71486 -75.72355 35049 ft 484 kts 138°
2026-05-09 02:47 23.66553 -75.67348 35059 ft 484 kts 138°
2026-05-09 02:47 23.61618 -75.62355 35069 ft 484 kts 138°
2026-05-09 02:48 23.56681 -75.57367 35070 ft 483 kts 139°
2026-05-09 02:48 23.51748 -75.52389 35069 ft 483 kts 139°
2026-05-09 02:49 23.46814 -75.47414 35065 ft 483 kts 139°
2026-05-09 02:49 23.41879 -75.42445 35068 ft 483 kts 138°
2026-05-09 02:50 23.36940 -75.37484 35058 ft 483 kts 138°
2026-05-09 02:50 23.32007 -75.32522 35060 ft 483 kts 138°
2026-05-09 02:51 23.27069 -75.27562 35061 ft 483 kts 138°
2026-05-09 02:51 23.22132 -75.22616 35062 ft 483 kts 138°
2026-05-09 02:52 23.17195 -75.17667 35064 ft 483 kts 138°
2026-05-09 02:52 23.12256 -75.12718 35060 ft 483 kts 138°
2026-05-09 02:53 23.07645 -75.07442 35056 ft 483 kts 126°
2026-05-09 02:53 23.03771 -75.01474 35059 ft 483 kts 125°
2026-05-09 02:54 22.99934 -74.95545 35049 ft 483 kts 125°
2026-05-09 02:54 22.96075 -74.89585 35057 ft 482 kts 125°
2026-05-09 02:55 22.92215 -74.83637 35061 ft 482 kts 125°
2026-05-09 02:55 22.88345 -74.77701 35059 ft 482 kts 125°
2026-05-09 02:56 22.84469 -74.71784 35057 ft 481 kts 125°
2026-05-09 02:56 22.80599 -74.65860 35055 ft 481 kts 125°
2026-05-09 02:57 22.76737 -74.59932 35056 ft 481 kts 125°
2026-05-09 02:57 22.72873 -74.54010 35056 ft 481 kts 125°
2026-05-09 02:58 22.68995 -74.48100 35055 ft 481 kts 125°
2026-05-09 02:58 22.65111 -74.42195 35051 ft 481 kts 125°
2026-05-09 02:59 22.61240 -74.36283 35059 ft 481 kts 125°
2026-05-09 02:59 22.57375 -74.30388 35067 ft 481 kts 125°
2026-05-09 03:00 22.53461 -74.24427 35063 ft 489 kts 125°
2026-05-09 03:00 22.49507 -74.18411 35065 ft 491 kts 125°
2026-05-09 03:01 22.45545 -74.12399 35064 ft 491 kts 125°
2026-05-09 03:01 22.41571 -74.06392 35062 ft 491 kts 125°
2026-05-09 03:02 22.37599 -74.00391 35067 ft 491 kts 125°
2026-05-09 03:02 22.33649 -73.94423 35068 ft 491 kts 125°
2026-05-09 03:03 22.29681 -73.88421 35069 ft 491 kts 125°
2026-05-09 03:03 22.25703 -73.82421 35070 ft 490 kts 125°
2026-05-09 03:04 22.21734 -73.76436 35076 ft 490 kts 125°
2026-05-09 03:04 22.17771 -73.70459 35078 ft 490 kts 125°
2026-05-09 03:05 22.13800 -73.64486 35081 ft 490 kts 125°
2026-05-09 03:05 22.09825 -73.58524 35079 ft 489 kts 126°
2026-05-09 03:06 22.05847 -73.52576 35077 ft 489 kts 126°
2026-05-09 03:06 22.01877 -73.46625 35076 ft 489 kts 126°
2026-05-09 03:07 21.97914 -73.40681 35072 ft 489 kts 125°
2026-05-09 03:07 21.93944 -73.34739 35069 ft 488 kts 126°
2026-05-09 03:08 21.89968 -73.28808 35070 ft 488 kts 125°
2026-05-09 03:08 21.86026 -73.22929 35072 ft 488 kts 125°
2026-05-09 03:09 21.82065 -73.17009 35071 ft 487 kts 125°
2026-05-09 03:09 21.78098 -73.11101 35069 ft 487 kts 125°
2026-05-09 03:10 21.74126 -73.05201 35067 ft 487 kts 125°
2026-05-09 03:10 21.70151 -72.99304 35065 ft 487 kts 125°
2026-05-09 03:11 21.66182 -72.93408 35065 ft 487 kts 125°
2026-05-09 03:11 21.62208 -72.87505 35063 ft 487 kts 125°
2026-05-09 03:12 21.58220 -72.81608 35060 ft 488 kts 125°
2026-05-09 03:12 21.54234 -72.75713 35064 ft 488 kts 125°
2026-05-09 03:13 21.48256 -72.66879 35067 ft 488 kts 125°
2026-05-09 03:13 21.44257 -72.60987 35068 ft 488 kts 125°
2026-05-09 03:14 21.40264 -72.55101 35060 ft 488 kts 125°
2026-05-09 03:14 21.36263 -72.49206 35051 ft 489 kts 125°
2026-05-09 03:15 21.32257 -72.43310 35063 ft 489 kts 125°
2026-05-09 03:15 21.28248 -72.37420 35062 ft 489 kts 125°
2026-05-09 03:16 21.24233 -72.31532 35073 ft 489 kts 125°
2026-05-09 03:16 21.20224 -72.25651 35074 ft 489 kts 125°
2026-05-09 03:17 21.16230 -72.19819 35068 ft 489 kts 125°
2026-05-09 03:17 21.12857 -72.14893 35075 ft 489 kts 125°
2026-05-09 03:18 21.08187 -72.08057 35066 ft 490 kts 125°
2026-05-09 03:18 21.04152 -72.02161 35056 ft 491 kts 125°
2026-05-09 03:19 21.00118 -71.96276 35074 ft 490 kts 125°
2026-05-09 03:19 20.96075 -71.90395 35076 ft 490 kts 125°
2026-05-09 03:20 20.92724 -71.85513 35081 ft 489 kts 125°
2026-05-09 03:20 20.88702 -71.79654 35075 ft 489 kts 125°
2026-05-09 03:21 20.84673 -71.73800 35061 ft 489 kts 125°
2026-05-09 03:21 20.80609 -71.67911 35063 ft 489 kts 125°
2026-05-09 03:22 20.76596 -71.62094 35053 ft 490 kts 125°
2026-05-09 03:22 20.72550 -71.56234 35060 ft 491 kts 126°
2026-05-09 03:23 20.68495 -71.50377 35074 ft 490 kts 126°
2026-05-09 03:23 20.64440 -71.44530 35076 ft 490 kts 125°
2026-05-09 03:24 20.60399 -71.38681 35082 ft 489 kts 125°
2026-05-09 03:24 20.56364 -71.32853 35070 ft 488 kts 126°
2026-05-09 03:25 20.52324 -71.27027 35070 ft 488 kts 125°
2026-05-09 03:25 20.48279 -71.21206 35056 ft 489 kts 125°
2026-05-09 03:26 20.44210 -71.15370 35053 ft 491 kts 125°
2026-05-09 03:26 20.39599 -71.10034 35066 ft 491 kts 141°
2026-05-09 03:27 20.34214 -71.05534 35049 ft 492 kts 141°
2026-05-09 03:27 20.28825 -71.01037 35069 ft 492 kts 141°
2026-05-09 03:28 20.23447 -70.96538 35078 ft 491 kts 141°
2026-05-09 03:28 20.18079 -70.92057 35077 ft 490 kts 141°
2026-05-09 03:29 20.12710 -70.87587 35074 ft 490 kts 141°
2026-05-09 03:29 20.07344 -70.83121 35064 ft 490 kts 141°
2026-05-09 03:30 20.01967 -70.78656 35058 ft 490 kts 141°
2026-05-09 03:30 19.96601 -70.74195 35059 ft 490 kts 141°
2026-05-09 03:31 19.91240 -70.69742 35062 ft 489 kts 141°
2026-05-09 03:31 19.85886 -70.65296 35050 ft 489 kts 141°
2026-05-09 03:32 19.80518 -70.60852 35051 ft 489 kts 141°
2026-05-09 03:32 19.75356 -70.56238 35040 ft 489 kts 131°
2026-05-09 03:33 19.71017 -70.50696 35045 ft 488 kts 128°
2026-05-09 03:33 19.66696 -70.45142 35065 ft 487 kts 128°
2026-05-09 03:34 19.62373 -70.39608 35073 ft 487 kts 128°
2026-05-09 03:34 19.58063 -70.34075 35072 ft 486 kts 128°
2026-05-09 03:35 19.53757 -70.28543 35069 ft 486 kts 128°
2026-05-09 03:35 19.49442 -70.23016 35070 ft 486 kts 128°
2026-05-09 03:36 19.45136 -70.17498 35071 ft 486 kts 128°
2026-05-09 03:36 19.40819 -70.11982 35068 ft 486 kts 129°
2026-05-09 03:37 19.36498 -70.06471 35070 ft 486 kts 129°
2026-05-09 03:37 19.32185 -70.00960 35062 ft 486 kts 128°
2026-05-09 03:38 19.27870 -69.95450 35064 ft 485 kts 128°
2026-05-09 03:38 19.23558 -69.89959 35069 ft 485 kts 129°
2026-05-09 03:39 19.19242 -69.84465 35068 ft 485 kts 129°
2026-05-09 03:39 19.14923 -69.78974 35073 ft 485 kts 129°
2026-05-09 03:40 19.10609 -69.73485 35073 ft 485 kts 129°
2026-05-09 03:40 19.06294 -69.68000 35071 ft 485 kts 129°
2026-05-09 03:41 19.01983 -69.62517 35073 ft 485 kts 129°
2026-05-09 03:41 18.97665 -69.57045 35072 ft 485 kts 129°
2026-05-09 03:42 18.93341 -69.51578 35077 ft 485 kts 129°
2026-05-09 03:42 18.89018 -69.46108 35074 ft 485 kts 129°
2026-05-09 03:43 18.84685 -69.40637 35075 ft 486 kts 129°
2026-05-09 03:43 18.80380 -69.35205 35081 ft 486 kts 129°
2026-05-09 03:44 18.76047 -69.29727 35085 ft 486 kts 129°
2026-05-09 03:44 18.71714 -69.24254 35087 ft 486 kts 129°
2026-05-09 03:45 18.67373 -69.18786 35094 ft 486 kts 129°
2026-05-09 03:45 18.63026 -69.13316 35093 ft 487 kts 129°
2026-05-09 03:46 18.58674 -69.07844 35092 ft 487 kts 129°
2026-05-09 03:46 18.54321 -69.02379 35091 ft 487 kts 129°
2026-05-09 03:47 18.49965 -68.96909 35096 ft 487 kts 129°
2026-05-09 03:47 18.45613 -68.91445 35096 ft 487 kts 129°
2026-05-09 03:48 18.41160 -68.86078 35094 ft 487 kts 131°
2026-05-09 03:48 18.36577 -68.80821 35094 ft 487 kts 131°
2026-05-09 03:49 18.31983 -68.75569 35089 ft 488 kts 131°
2026-05-09 03:49 18.27419 -68.70282 35076 ft 488 kts 130°
2026-05-09 03:50 18.22875 -68.64981 35077 ft 488 kts 130°
2026-05-09 03:50 18.18326 -68.59681 35078 ft 488 kts 130°
2026-05-09 03:51 18.13771 -68.54379 35080 ft 488 kts 130°
2026-05-09 03:51 18.09204 -68.49090 35083 ft 489 kts 130°
2026-05-09 03:52 18.04627 -68.43802 35077 ft 489 kts 130°
2026-05-09 03:52 18.00083 -68.38542 35077 ft 489 kts 130°
2026-05-09 03:53 17.95505 -68.33247 35071 ft 490 kts 130°
2026-05-09 03:53 17.90924 -68.27956 35071 ft 490 kts 130°
2026-05-09 03:54 17.86341 -68.22670 35071 ft 489 kts 130°
2026-05-09 03:54 17.81758 -68.17388 35075 ft 489 kts 130°
2026-05-09 03:55 17.77176 -68.12109 35075 ft 489 kts 130°
2026-05-09 03:55 17.72596 -68.06834 35073 ft 489 kts 130°
2026-05-09 03:56 17.68018 -68.01570 35067 ft 488 kts 130°
2026-05-09 03:56 17.63920 -67.95932 35064 ft 486 kts 123°
2026-05-09 03:57 17.60026 -67.90139 35060 ft 486 kts 123°
2026-05-09 03:57 17.56125 -67.84354 35061 ft 486 kts 123°
2026-05-09 03:58 17.52216 -67.78566 35061 ft 486 kts 123°
2026-05-09 03:58 17.48307 -67.72781 35062 ft 486 kts 123°
2026-05-09 03:59 17.44393 -67.67000 35064 ft 486 kts 123°
2026-05-09 03:59 17.40482 -67.61223 35066 ft 486 kts 123°
2026-05-09 04:00 17.36570 -67.55445 35064 ft 486 kts 123°
2026-05-09 04:00 17.32681 -67.49719 35069 ft 486 kts 123°
2026-05-09 04:01 17.28762 -67.43949 35067 ft 486 kts 123°
2026-05-09 04:01 17.24850 -67.38178 35065 ft 486 kts 123°
2026-05-09 04:02 17.20938 -67.32413 35061 ft 486 kts 123°
2026-05-09 04:02 17.17019 -67.26646 35060 ft 486 kts 123°
2026-05-09 04:03 17.13097 -67.20888 35066 ft 486 kts 123°
2026-05-09 04:03 17.09169 -67.15133 35062 ft 486 kts 123°
2026-05-09 04:04 17.05239 -67.09379 35060 ft 486 kts 123°
2026-05-09 04:04 17.01317 -67.03616 35061 ft 486 kts 123°
2026-05-09 04:05 16.97395 -66.97859 35059 ft 486 kts 123°
2026-05-09 04:05 16.93463 -66.92109 35063 ft 486 kts 123°
2026-05-09 04:06 16.89526 -66.86363 35063 ft 487 kts 123°
2026-05-09 04:06 16.86255 -66.81585 35059 ft 487 kts 123°
2026-05-09 04:07 16.81650 -66.74859 35055 ft 487 kts 123°
2026-05-09 04:07 16.78371 -66.70084 35056 ft 487 kts 123°
2026-05-09 04:08 16.74421 -66.64335 35052 ft 487 kts 123°
2026-05-09 04:08 16.70481 -66.58586 35052 ft 487 kts 123°
2026-05-09 04:09 16.66534 -66.52840 35058 ft 487 kts 123°
2026-05-09 04:09 16.62577 -66.47101 35056 ft 487 kts 123°
2026-05-09 04:10 16.58615 -66.41361 35054 ft 487 kts 123°
2026-05-09 04:10 16.54655 -66.35624 35052 ft 487 kts 123°
2026-05-09 04:11 16.50698 -66.29888 35051 ft 488 kts 123°
2026-05-09 04:11 16.46748 -66.24147 35060 ft 487 kts 123°
2026-05-09 04:12 16.42791 -66.18409 35057 ft 487 kts 123°
2026-05-09 04:12 16.38826 -66.12679 35055 ft 487 kts 123°
2026-05-09 04:13 16.34864 -66.06952 35053 ft 487 kts 123°
2026-05-09 04:13 16.30896 -66.01227 35058 ft 487 kts 123°
2026-05-09 04:14 16.26932 -65.95507 35048 ft 487 kts 123°
2026-05-09 04:14 16.22972 -65.89788 35056 ft 487 kts 123°
2026-05-09 04:15 16.19007 -65.84086 35055 ft 486 kts 123°
2026-05-09 04:15 16.15079 -65.78427 35051 ft 486 kts 123°
2026-05-09 04:16 16.11128 -65.72729 35055 ft 485 kts 123°
2026-05-09 04:16 16.07176 -65.67040 35054 ft 485 kts 123°
2026-05-09 04:17 16.03212 -65.61356 35055 ft 485 kts 123°
2026-05-09 04:17 15.99251 -65.55682 35056 ft 485 kts 123°
2026-05-09 04:18 15.95290 -65.50010 35059 ft 485 kts 123°
2026-05-09 04:18 15.91339 -65.44339 35048 ft 484 kts 123°
2026-05-09 04:19 15.87394 -65.38670 35061 ft 484 kts 123°
2026-05-09 04:19 15.83441 -65.33018 35057 ft 483 kts 123°
2026-05-09 04:20 15.79484 -65.27379 35056 ft 483 kts 122°
2026-05-09 04:20 15.75538 -65.21748 35048 ft 482 kts 122°
2026-05-09 04:21 15.71597 -65.16122 35047 ft 482 kts 122°
2026-05-09 04:22 15.65680 -65.07690 35041 ft 482 kts 122°
2026-05-09 04:22 15.61737 -65.02072 35045 ft 481 kts 122°
2026-05-09 04:23 15.57798 -64.96456 35045 ft 482 kts 122°
2026-05-09 04:23 15.53853 -64.90843 35041 ft 482 kts 122°
2026-05-09 04:24 15.49903 -64.85232 35042 ft 482 kts 122°
2026-05-09 04:24 15.45949 -64.79620 35043 ft 482 kts 122°
2026-05-09 04:25 15.42000 -64.74008 35041 ft 482 kts 122°
2026-05-09 04:25 15.38073 -64.68435 35040 ft 482 kts 122°
2026-05-09 04:26 15.34125 -64.62831 35036 ft 482 kts 122°
2026-05-09 04:26 15.30169 -64.57230 35035 ft 482 kts 122°
2026-05-09 04:27 15.26209 -64.51632 35034 ft 482 kts 122°
2026-05-09 04:27 15.22256 -64.46027 35035 ft 482 kts 122°
2026-05-09 04:28 15.18298 -64.40428 35038 ft 482 kts 122°
2026-05-09 04:28 15.14330 -64.34840 35041 ft 482 kts 122°
2026-05-09 04:29 15.10364 -64.29253 35042 ft 481 kts 122°
2026-05-09 04:29 15.06407 -64.23664 35041 ft 481 kts 122°
2026-05-09 04:30 15.02449 -64.18081 35031 ft 481 kts 122°
2026-05-09 04:30 14.97917 -64.12958 35026 ft 489 kts 138°
2026-05-09 04:31 14.92518 -64.08667 35029 ft 490 kts 139°
2026-05-09 04:31 14.87119 -64.04371 35037 ft 490 kts 139°
2026-05-09 04:32 14.81724 -64.00063 35034 ft 490 kts 139°
2026-05-09 04:32 14.76322 -63.95767 35030 ft 490 kts 139°
2026-05-09 04:33 14.70908 -63.91474 35029 ft 490 kts 139°
2026-05-09 04:33 14.65537 -63.87207 35030 ft 490 kts 139°
2026-05-09 04:34 14.60133 -63.82909 35024 ft 490 kts 139°
2026-05-09 04:34 14.54723 -63.78616 35025 ft 491 kts 139°
2026-05-09 04:35 14.49309 -63.74329 35024 ft 491 kts 139°
2026-05-09 04:35 14.43893 -63.70041 35033 ft 491 kts 139°
2026-05-09 04:36 14.38480 -63.65757 35031 ft 490 kts 139°
2026-05-09 04:36 14.33067 -63.61472 35027 ft 490 kts 139°
2026-05-09 04:37 14.27660 -63.57188 35025 ft 490 kts 139°
2026-05-09 04:37 14.22245 -63.52913 35025 ft 490 kts 139°
2026-05-09 04:38 14.16832 -63.48644 35024 ft 490 kts 139°
2026-05-09 04:38 14.11418 -63.44369 35024 ft 490 kts 139°
2026-05-09 04:39 14.06008 -63.40095 35032 ft 490 kts 139°
2026-05-09 04:39 14.00605 -63.35830 35034 ft 489 kts 139°
2026-05-09 04:40 13.95207 -63.31571 35029 ft 489 kts 139°
2026-05-09 04:40 13.89809 -63.27320 35028 ft 488 kts 139°
2026-05-09 04:41 13.84447 -63.23107 35022 ft 488 kts 139°
2026-05-09 04:41 13.79050 -63.18861 35021 ft 488 kts 139°
2026-05-09 04:42 13.73655 -63.14620 35022 ft 488 kts 139°
2026-05-09 04:42 13.68258 -63.10385 35031 ft 488 kts 139°
2026-05-09 04:43 13.62861 -63.06151 35024 ft 488 kts 139°
2026-05-09 04:43 13.57461 -63.01917 35022 ft 488 kts 139°
2026-05-09 04:44 13.52067 -62.97683 35016 ft 488 kts 139°
2026-05-09 04:44 13.46674 -62.93444 35018 ft 488 kts 139°
2026-05-09 04:45 13.41274 -62.89214 35016 ft 488 kts 139°
2026-05-09 04:45 13.35869 -62.84994 35015 ft 488 kts 139°
2026-05-09 04:46 13.30464 -62.80769 35036 ft 489 kts 140°
2026-05-09 04:46 13.25055 -62.76531 35020 ft 489 kts 140°
2026-05-09 04:47 13.19644 -62.72300 35017 ft 489 kts 140°
2026-05-09 04:47 13.14224 -62.68067 35012 ft 490 kts 140°
2026-05-09 04:48 13.08806 -62.63836 35014 ft 490 kts 140°
2026-05-09 04:48 13.03377 -62.59604 35014 ft 490 kts 140°
2026-05-09 04:49 12.97988 -62.55410 35016 ft 490 kts 140°
2026-05-09 04:49 12.92562 -62.51181 35021 ft 490 kts 141°
2026-05-09 04:50 12.87143 -62.46954 35022 ft 489 kts 141°
2026-05-09 04:50 12.81726 -62.42732 35019 ft 489 kts 141°
2026-05-09 04:51 12.76306 -62.38518 35016 ft 489 kts 141°
2026-05-09 04:51 12.70888 -62.34310 35015 ft 489 kts 141°
2026-05-09 04:52 12.65474 -62.30101 35012 ft 489 kts 141°
2026-05-09 04:52 12.60058 -62.25890 35009 ft 489 kts 142°
2026-05-09 04:53 12.54638 -62.21676 35016 ft 489 kts 143°
2026-05-09 04:53 12.49216 -62.17468 35008 ft 489 kts 143°
2026-05-09 04:54 12.43788 -62.13262 35016 ft 489 kts 143°
2026-05-09 04:54 12.38366 -62.09059 35011 ft 489 kts 143°
2026-05-09 04:55 12.32935 -62.04855 35002 ft 490 kts 143°
2026-05-09 04:55 12.27499 -62.00645 35002 ft 490 kts 144°
2026-05-09 04:56 12.22990 -61.97143 35015 ft 489 kts 144°
2026-05-09 04:56 12.17567 -61.92951 35015 ft 488 kts 144°
2026-05-09 04:57 12.12148 -61.88767 35013 ft 488 kts 144°
2026-05-09 04:57 12.06743 -61.84586 35025 ft 487 kts 144°
2026-05-09 04:58 12.01341 -61.80413 35024 ft 487 kts 144°
2026-05-09 04:58 11.95943 -61.76250 35021 ft 486 kts 144°
2026-05-09 04:59 11.90543 -61.72077 34992 ft 487 kts 145°
2026-05-09 04:59 11.85136 -61.67912 34992 ft 487 kts 145°
2026-05-09 05:00 11.79717 -61.63743 34992 ft 488 kts 145°
2026-05-09 05:00 11.74300 -61.59565 34990 ft 488 kts 145°
2026-05-09 05:01 11.68882 -61.55388 34993 ft 488 kts 145°
2026-05-09 05:01 11.63457 -61.51214 34995 ft 488 kts 145°
2026-05-09 05:02 11.58070 -61.47075 34988 ft 488 kts 146°
2026-05-09 05:02 11.52643 -61.42900 34987 ft 489 kts 146°
2026-05-09 05:03 11.47209 -61.38724 34986 ft 489 kts 146°
2026-05-09 05:03 11.41768 -61.34557 34989 ft 489 kts 146°
2026-05-09 05:04 11.36322 -61.30389 34996 ft 490 kts 147°
2026-05-09 05:04 11.30885 -61.26210 34998 ft 490 kts 147°
2026-05-09 05:05 11.25444 -61.22029 34996 ft 490 kts 147°
2026-05-09 05:05 11.20005 -61.17856 34988 ft 490 kts 148°
2026-05-09 05:06 11.14559 -61.13687 34989 ft 490 kts 148°
2026-05-09 05:06 11.09108 -61.09521 34994 ft 490 kts 148°
2026-05-09 05:07 11.03656 -61.05345 34996 ft 490 kts 148°
2026-05-09 05:07 10.98203 -61.01169 34998 ft 490 kts 148°
2026-05-09 05:08 10.92755 -60.96995 34998 ft 490 kts 148°
2026-05-09 05:08 10.87340 -60.92851 34989 ft 490 kts 149°
2026-05-09 05:09 10.81886 -60.88687 34992 ft 490 kts 149°
2026-05-09 05:09 10.76426 -60.84520 34995 ft 491 kts 149°
2026-05-09 05:10 10.70965 -60.80356 34995 ft 491 kts 149°
2026-05-09 05:10 10.65503 -60.76197 34991 ft 491 kts 149°
2026-05-09 05:11 10.60046 -60.72032 35002 ft 491 kts 149°
2026-05-09 05:11 10.54586 -60.67864 34990 ft 490 kts 149°
2026-05-09 05:12 10.49129 -60.63708 34989 ft 490 kts 149°
2026-05-09 05:12 10.43670 -60.59555 34997 ft 490 kts 149°
2026-05-09 05:13 10.38216 -60.55397 34993 ft 490 kts 148°
2026-05-09 05:13 10.32760 -60.51248 34995 ft 490 kts 149°
2026-05-09 05:14 10.27299 -60.47104 34988 ft 490 kts 149°
2026-05-09 05:14 10.21843 -60.42960 34986 ft 490 kts 149°
2026-05-09 05:15 10.16394 -60.38809 34981 ft 489 kts 149°
2026-05-09 05:15 10.10949 -60.34665 34982 ft 489 kts 149°
2026-05-09 05:16 10.05497 -60.30527 34983 ft 489 kts 149°
2026-05-09 05:16 10.00048 -60.26395 34987 ft 489 kts 149°
2026-05-09 05:17 9.94598 -60.22266 34985 ft 489 kts 149°
2026-05-09 05:17 9.89154 -60.18135 34984 ft 489 kts 149°
2026-05-09 05:18 9.83705 -60.14006 34988 ft 489 kts 149°
2026-05-09 05:18 9.78257 -60.09886 34986 ft 488 kts 149°
2026-05-09 05:19 9.72809 -60.05766 34988 ft 488 kts 149°
2026-05-09 05:19 9.67369 -60.01645 34989 ft 488 kts 149°
2026-05-09 05:20 9.61925 -59.97524 34988 ft 488 kts 149°
2026-05-09 05:20 9.56515 -59.93439 34988 ft 488 kts 149°
2026-05-09 05:21 9.51072 -59.89325 34985 ft 488 kts 149°
2026-05-09 05:21 9.45626 -59.85212 34985 ft 488 kts 149°
2026-05-09 05:22 9.40185 -59.81099 34985 ft 488 kts 149°
2026-05-09 05:22 9.34736 -59.76985 34984 ft 488 kts 149°
2026-05-09 05:23 9.29297 -59.72871 34983 ft 488 kts 149°
2026-05-09 05:23 9.23854 -59.68760 34983 ft 488 kts 149°
2026-05-09 05:24 9.18405 -59.64659 34983 ft 488 kts 149°
2026-05-09 05:24 9.12953 -59.60561 34969 ft 488 kts 149°
2026-05-09 05:25 9.07509 -59.56458 34975 ft 488 kts 149°
2026-05-09 05:25 8.99345 -59.50302 34976 ft 488 kts 149°
2026-05-09 05:26 8.93895 -59.46195 34977 ft 489 kts 148°
2026-05-09 05:26 8.89089 -59.41241 34975 ft 499 kts 134°
2026-05-09 05:27 8.84721 -59.35778 34976 ft 500 kts 134°
2026-05-09 05:27 8.80345 -59.30318 34974 ft 500 kts 134°
2026-05-09 05:28 8.75965 -59.24868 34975 ft 499 kts 134°
2026-05-09 05:28 8.71589 -59.19433 34978 ft 498 kts 134°
2026-05-09 05:29 8.67219 -59.14000 34977 ft 498 kts 134°
2026-05-09 05:29 8.62854 -59.08571 34976 ft 498 kts 134°
2026-05-09 05:30 8.58492 -59.03141 34983 ft 497 kts 134°
2026-05-09 05:30 8.54123 -58.97726 34979 ft 497 kts 134°
2026-05-09 05:31 8.49761 -58.92310 34979 ft 497 kts 134°
2026-05-09 05:31 8.45403 -58.86896 34978 ft 497 kts 134°
2026-05-09 05:32 8.41051 -58.81476 34970 ft 496 kts 134°
2026-05-09 05:32 8.36719 -58.76107 34970 ft 496 kts 134°
2026-05-09 05:33 8.32362 -58.70704 34974 ft 496 kts 134°
2026-05-09 05:33 8.28005 -58.65302 34973 ft 496 kts 134°
2026-05-09 05:34 8.23648 -58.59898 34971 ft 496 kts 134°
2026-05-09 05:34 8.19289 -58.54506 34971 ft 496 kts 134°
2026-05-09 05:35 8.14925 -58.49108 34970 ft 496 kts 134°
2026-05-09 05:35 8.10567 -58.43713 34973 ft 496 kts 134°
2026-05-09 05:36 8.06214 -58.38323 34967 ft 495 kts 134°
2026-05-09 05:36 8.01869 -58.32935 34967 ft 495 kts 134°
2026-05-09 05:37 7.97517 -58.27550 34970 ft 495 kts 134°
2026-05-09 05:37 7.93168 -58.22177 34972 ft 495 kts 134°
2026-05-09 05:38 7.88817 -58.16805 34972 ft 494 kts 134°
2026-05-09 05:38 7.84467 -58.11430 34968 ft 494 kts 134°
2026-05-09 05:39 7.80118 -58.06055 34969 ft 494 kts 134°
2026-05-09 05:39 7.75748 -58.00705 34971 ft 494 kts 134°
2026-05-09 05:40 7.71393 -57.95402 34963 ft 494 kts 134°
2026-05-09 05:40 7.67016 -57.90067 34967 ft 494 kts 134°
2026-05-09 05:41 7.62661 -57.84717 34973 ft 493 kts 134°
2026-05-09 05:41 7.58340 -57.79344 34971 ft 493 kts 134°
2026-05-09 05:42 7.54019 -57.73979 34972 ft 493 kts 134°
2026-05-09 05:42 7.49694 -57.68624 34971 ft 492 kts 134°
2026-05-09 05:43 7.45365 -57.63271 34972 ft 492 kts 134°
2026-05-09 05:43 7.41772 -57.58827 34967 ft 492 kts 134°
2026-05-09 05:44 7.37446 -57.53482 34967 ft 492 kts 134°
2026-05-09 05:44 7.33120 -57.48134 34962 ft 492 kts 134°
2026-05-09 05:45 7.28776 -57.42799 34959 ft 492 kts 134°
2026-05-09 05:45 7.24433 -57.37473 34962 ft 492 kts 134°
2026-05-09 05:46 7.20092 -57.32150 34964 ft 492 kts 134°
2026-05-09 05:46 7.15753 -57.26820 34961 ft 492 kts 134°
2026-05-09 05:47 7.11419 -57.21489 34960 ft 492 kts 134°
2026-05-09 05:47 7.07079 -57.16155 34960 ft 492 kts 134°
2026-05-09 05:48 7.02740 -57.10832 34955 ft 492 kts 134°
2026-05-09 05:48 6.98395 -57.05518 34959 ft 491 kts 134°
2026-05-09 05:49 6.94054 -57.00208 34952 ft 491 kts 134°
2026-05-09 05:49 6.89721 -56.94893 34961 ft 491 kts 134°
2026-05-09 05:50 6.85395 -56.89579 34952 ft 491 kts 134°
2026-05-09 05:50 6.81067 -56.84267 34952 ft 491 kts 134°
2026-05-09 05:51 6.76741 -56.78963 34960 ft 490 kts 134°
2026-05-09 05:51 6.72408 -56.73670 34954 ft 490 kts 134°
2026-05-09 05:52 6.68072 -56.68374 34949 ft 490 kts 134°
2026-05-09 05:52 6.63748 -56.63076 34951 ft 490 kts 133°
2026-05-09 05:53 6.59425 -56.57779 34953 ft 490 kts 133°
2026-05-09 05:53 6.55102 -56.52493 34955 ft 489 kts 133°
2026-05-09 05:54 6.50782 -56.47214 34955 ft 489 kts 133°
2026-05-09 05:54 6.46461 -56.41938 34954 ft 488 kts 133°
2026-05-09 05:55 6.42138 -56.36673 34952 ft 488 kts 133°
2026-05-09 05:55 6.37816 -56.31401 34945 ft 488 kts 133°
2026-05-09 05:56 6.33511 -56.26125 34944 ft 488 kts 133°
2026-05-09 05:56 6.29202 -56.20855 34946 ft 488 kts 133°
2026-05-09 05:57 6.24896 -56.15597 34948 ft 487 kts 133°
2026-05-09 05:57 6.20590 -56.10341 34950 ft 487 kts 133°
2026-05-09 05:58 6.16288 -56.05094 34952 ft 486 kts 133°
2026-05-09 05:58 6.11983 -55.99851 34947 ft 486 kts 133°
2026-05-09 05:59 6.07681 -55.94602 34950 ft 486 kts 133°
2026-05-09 05:59 6.03380 -55.89359 34951 ft 487 kts 133°
2026-05-09 06:00 5.99104 -55.84147 34941 ft 486 kts 133°
2026-05-09 06:00 5.94806 -55.78909 34943 ft 486 kts 133°
2026-05-09 06:01 5.90504 -55.73676 34948 ft 486 kts 133°
2026-05-09 06:01 5.86200 -55.68439 34947 ft 486 kts 133°
2026-05-09 06:02 5.81905 -55.63209 34952 ft 485 kts 133°
2026-05-09 06:02 5.77609 -55.57980 34955 ft 485 kts 133°
2026-05-09 06:03 5.73309 -55.52747 34952 ft 485 kts 133°
2026-05-09 06:03 5.69012 -55.47519 34952 ft 485 kts 133°
2026-05-09 06:04 5.64715 -55.42291 34954 ft 485 kts 133°
2026-05-09 06:04 5.60420 -55.37065 34957 ft 485 kts 133°
2026-05-09 06:05 5.56119 -55.31847 34960 ft 485 kts 133°
2026-05-09 06:05 5.51818 -55.26635 34966 ft 485 kts 133°
2026-05-09 06:06 5.47520 -55.21423 34966 ft 484 kts 133°
2026-05-09 06:06 5.43005 -55.16454 34965 ft 480 kts 140°
2026-05-09 06:07 5.38179 -55.11815 34965 ft 480 kts 140°
2026-05-09 06:07 5.33353 -55.07183 34966 ft 480 kts 140°
2026-05-09 06:08 5.28529 -55.02559 34962 ft 480 kts 139°
2026-05-09 06:08 5.23707 -54.97936 34965 ft 479 kts 139°
2026-05-09 06:09 5.18916 -54.93352 34968 ft 479 kts 139°
2026-05-09 06:09 5.14100 -54.88740 34966 ft 479 kts 139°
2026-05-09 06:10 5.09282 -54.84125 34960 ft 479 kts 139°
2026-05-09 06:10 5.04468 -54.79509 34962 ft 479 kts 139°
2026-05-09 06:11 4.99653 -54.74899 34966 ft 479 kts 139°
2026-05-09 06:11 4.94840 -54.70285 34960 ft 478 kts 139°
2026-05-09 06:12 4.90031 -54.65673 34961 ft 478 kts 139°
2026-05-09 06:12 4.85219 -54.61069 34962 ft 478 kts 139°
2026-05-09 06:13 4.80403 -54.56473 34961 ft 478 kts 139°
2026-05-09 06:13 4.75593 -54.51872 34958 ft 478 kts 139°
2026-05-09 06:14 4.70783 -54.47272 34962 ft 477 kts 139°
2026-05-09 06:14 4.65950 -54.42650 34963 ft 477 kts 139°
2026-05-09 06:15 4.61211 -54.38078 34968 ft 476 kts 138°
2026-05-09 06:15 4.56472 -54.33460 34967 ft 475 kts 138°
2026-05-09 06:16 4.51744 -54.28854 34965 ft 474 kts 138°
2026-05-09 06:16 4.47013 -54.24259 34967 ft 473 kts 138°
2026-05-09 06:17 4.42267 -54.19679 34946 ft 474 kts 138°
2026-05-09 06:17 4.37519 -54.15089 34941 ft 475 kts 138°
2026-05-09 06:18 4.32764 -54.10484 34946 ft 475 kts 138°
2026-05-09 06:18 4.28005 -54.05870 34931 ft 477 kts 137°
2026-05-09 06:19 4.23233 -54.01241 34924 ft 478 kts 137°
2026-05-09 06:19 4.18452 -53.96614 34936 ft 478 kts 137°
2026-05-09 06:20 4.13670 -53.91987 34950 ft 478 kts 137°
2026-05-09 06:20 4.08896 -53.87367 34954 ft 477 kts 137°
2026-05-09 06:21 4.07029 -53.85558 34957 ft 477 kts 137°
2026-05-09 06:21 4.04409 -53.83021 34959 ft 477 kts 137°
2026-05-09 06:22 3.99642 -53.78406 34953 ft 477 kts 137°
2026-05-09 06:22 3.94867 -53.73786 34941 ft 478 kts 138°
2026-05-09 06:23 3.90085 -53.69164 34940 ft 478 kts 138°
2026-05-09 06:23 3.85298 -53.64534 34943 ft 479 kts 138°
2026-05-09 06:24 3.80507 -53.59898 34950 ft 479 kts 138°
2026-05-09 06:24 3.75714 -53.55271 34953 ft 479 kts 138°
2026-05-09 06:25 3.70932 -53.50634 34955 ft 479 kts 137°
2026-05-09 06:25 3.66143 -53.45991 34956 ft 479 kts 138°
2026-05-09 06:26 3.61379 -53.41396 34961 ft 479 kts 138°
2026-05-09 06:26 3.56581 -53.36778 34962 ft 478 kts 138°
2026-05-09 06:27 3.51790 -53.32153 34959 ft 478 kts 138°
2026-05-09 06:27 3.47002 -53.27530 34956 ft 478 kts 138°
2026-05-09 06:28 3.42211 -53.22908 34955 ft 478 kts 138°
2026-05-09 06:28 3.37419 -53.18291 34955 ft 478 kts 138°
2026-05-09 06:29 3.33407 -53.14419 34948 ft 478 kts 138°
2026-05-09 06:29 3.28619 -53.09793 34948 ft 479 kts 138°
2026-05-09 06:30 3.23827 -53.05162 34951 ft 479 kts 138°
2026-05-09 06:30 3.19057 -53.00566 34954 ft 479 kts 138°
2026-05-09 06:31 3.14259 -52.95942 34955 ft 479 kts 138°
2026-05-09 06:31 3.09461 -52.91322 34955 ft 479 kts 138°
2026-05-09 06:32 3.04661 -52.86703 34956 ft 479 kts 138°
2026-05-09 06:33 2.97465 -52.79773 34949 ft 479 kts 138°
2026-05-09 06:33 2.92670 -52.75144 34952 ft 479 kts 138°
2026-05-09 06:34 2.85474 -52.68205 34952 ft 479 kts 138°
2026-05-09 06:34 2.80672 -52.63588 34952 ft 479 kts 138°
2026-05-09 06:35 2.75867 -52.58964 34949 ft 479 kts 138°
2026-05-09 06:35 2.71076 -52.54334 34953 ft 479 kts 138°
2026-05-09 06:36 2.66246 -52.49743 34946 ft 478 kts 142°
2026-05-09 06:36 2.61066 -52.45588 34949 ft 477 kts 143°
2026-05-09 06:37 2.55886 -52.41431 34946 ft 477 kts 143°
2026-05-09 06:37 2.50711 -52.37270 34947 ft 477 kts 143°
2026-05-09 06:38 2.45533 -52.33101 34950 ft 478 kts 143°
2026-05-09 06:38 2.40356 -52.28940 34946 ft 478 kts 144°
2026-05-09 06:39 2.35170 -52.24783 34945 ft 478 kts 144°
2026-05-09 06:39 2.29988 -52.20616 34946 ft 478 kts 143°
2026-05-09 06:40 2.24811 -52.16448 34949 ft 478 kts 144°
2026-05-09 06:40 2.19632 -52.12281 34946 ft 478 kts 144°
2026-05-09 06:41 2.14447 -52.08117 34949 ft 478 kts 144°
2026-05-09 06:41 2.09260 -52.03957 34946 ft 478 kts 143°
2026-05-09 06:42 2.04067 -51.99790 34946 ft 478 kts 143°
2026-05-09 06:42 1.98881 -51.95622 34943 ft 478 kts 143°
2026-05-09 06:43 1.93694 -51.91455 34951 ft 479 kts 143°
2026-05-09 06:43 1.88503 -51.87287 34953 ft 479 kts 143°
2026-05-09 06:44 1.83311 -51.83119 34949 ft 479 kts 143°
2026-05-09 06:44 1.78123 -51.78952 34940 ft 479 kts 143°
2026-05-09 06:45 1.72930 -51.74790 34944 ft 479 kts 143°
2026-05-09 06:45 1.67739 -51.70618 34943 ft 479 kts 143°
2026-05-09 06:46 1.62583 -51.66478 34947 ft 479 kts 143°
2026-05-09 06:46 1.57386 -51.62317 34946 ft 479 kts 143°
2026-05-09 06:47 1.52193 -51.58155 34945 ft 479 kts 143°
2026-05-09 06:47 1.47003 -51.53985 34947 ft 479 kts 143°
2026-05-09 06:48 1.41813 -51.49811 34949 ft 479 kts 143°
2026-05-09 06:48 1.36622 -51.45644 34945 ft 479 kts 143°
2026-05-09 06:49 1.31432 -51.41474 34947 ft 479 kts 143°
2026-05-09 06:49 1.26234 -51.37311 34945 ft 479 kts 143°
2026-05-09 06:50 1.21040 -51.33147 34941 ft 479 kts 143°
2026-05-09 06:50 1.15845 -51.28987 34938 ft 479 kts 143°
2026-05-09 06:51 1.10655 -51.24818 34940 ft 478 kts 143°
2026-05-09 06:51 1.05473 -51.20653 34941 ft 478 kts 143°
2026-05-09 06:52 1.00287 -51.16488 34937 ft 478 kts 143°
2026-05-09 06:52 0.95096 -51.12327 34932 ft 478 kts 143°
2026-05-09 06:53 0.89903 -51.08175 34936 ft 478 kts 143°
2026-05-09 06:53 0.84718 -51.04016 34935 ft 478 kts 143°
2026-05-09 06:54 0.79530 -50.99854 34931 ft 478 kts 143°
2026-05-09 06:54 0.74347 -50.95690 34930 ft 478 kts 142°
2026-05-09 06:55 0.69183 -50.91506 34928 ft 478 kts 142°
2026-05-09 06:55 0.64040 -50.87297 34930 ft 478 kts 142°
2026-05-09 06:56 0.58900 -50.83084 34926 ft 478 kts 142°
2026-05-09 06:56 0.53750 -50.78882 34929 ft 478 kts 142°
2026-05-09 06:57 0.48589 -50.74695 34926 ft 478 kts 142°
2026-05-09 06:57 0.43425 -50.70504 34925 ft 478 kts 142°
2026-05-09 06:58 0.38268 -50.66306 34923 ft 478 kts 142°
2026-05-09 06:58 0.33113 -50.62104 34923 ft 478 kts 142°
2026-05-09 06:59 0.27959 -50.57898 34922 ft 478 kts 142°
2026-05-09 06:59 0.22805 -50.53699 34927 ft 478 kts 142°
2026-05-09 07:00 0.17647 -50.49504 34923 ft 478 kts 142°
2026-05-09 07:00 0.12486 -50.45309 34924 ft 478 kts 142°
2026-05-09 07:01 0.07328 -50.41114 34925 ft 478 kts 142°
2026-05-09 07:01 0.02165 -50.36918 34928 ft 478 kts 142°
2026-05-09 07:02 -0.02996 -50.32729 34927 ft 478 kts 142°
2026-05-09 07:02 -0.08152 -50.28534 34927 ft 478 kts 142°
2026-05-09 07:03 -0.13300 -50.24340 34927 ft 478 kts 142°
2026-05-09 07:03 -0.18450 -50.20139 34927 ft 478 kts 142°
2026-05-09 07:04 -0.23599 -50.15945 34925 ft 477 kts 141°
2026-05-09 07:04 -0.28751 -50.11760 34925 ft 477 kts 142°
2026-05-09 07:05 -0.33900 -50.07569 34922 ft 477 kts 141°
2026-05-09 07:05 -0.39009 -50.03399 34922 ft 477 kts 141°
2026-05-09 07:06 -0.44112 -49.99243 34912 ft 467 kts 141°
2026-05-09 07:06 -0.49137 -49.95154 34077 ft 468 kts 141°
2026-05-09 07:07 -0.51689 -49.93079 33028 ft 475 kts 141°
2026-05-09 07:07 -0.54292 -49.90956 32041 ft 479 kts 141°
2026-05-09 07:07 -0.56835 -49.88880 31426 ft 475 kts 141°
2026-05-09 07:07 -0.59389 -49.86801 30781 ft 472 kts 141°
2026-05-09 07:08 -0.61965 -49.84710 30116 ft 469 kts 141°
2026-05-09 07:08 -0.64486 -49.82661 29421 ft 465 kts 140°
2026-05-09 07:08 -0.66947 -49.80662 28813 ft 459 kts 140°
2026-05-09 07:08 -0.69408 -49.78660 28202 ft 454 kts 140°
2026-05-09 07:09 -0.71845 -49.76677 27599 ft 449 kts 140°
2026-05-09 07:09 -0.74256 -49.74714 27004 ft 445 kts 140°
2026-05-09 07:09 -0.76645 -49.72769 26410 ft 441 kts 140°
2026-05-09 07:09 -0.79009 -49.70841 25836 ft 437 kts 140°
2026-05-09 07:10 -0.81287 -49.68860 25247 ft 432 kts 133°
2026-05-09 07:10 -0.83176 -49.66552 24727 ft 426 kts 122°
2026-05-09 07:10 -0.84775 -49.64080 24197 ft 422 kts 121°
2026-05-09 07:10 -0.86359 -49.61635 23687 ft 417 kts 122°
2026-05-09 07:11 -0.87935 -49.59213 23137 ft 414 kts 121°
2026-05-09 07:11 -0.89495 -49.56822 22640 ft 408 kts 121°
2026-05-09 07:11 -0.91031 -49.54466 22171 ft 402 kts 121°
2026-05-09 07:11 -0.92546 -49.52136 21696 ft 397 kts 121°
2026-05-09 07:12 -0.94040 -49.49834 21227 ft 392 kts 121°
2026-05-09 07:12 -0.95517 -49.47559 20752 ft 389 kts 121°
2026-05-09 07:12 -0.96985 -49.45303 20265 ft 385 kts 121°
2026-05-09 07:12 -0.98440 -49.43065 19778 ft 383 kts 121°
2026-05-09 07:13 -0.99886 -49.40836 19287 ft 381 kts 121°
2026-05-09 07:13 -1.00839 -49.39366 18954 ft 380 kts 121°
2026-05-09 07:13 -1.02273 -49.37154 18459 ft 379 kts 121°
2026-05-09 07:13 -1.03704 -49.34949 17918 ft 378 kts 121°
2026-05-09 07:14 -1.05122 -49.32764 17404 ft 375 kts 121°
2026-05-09 07:14 -1.06541 -49.30579 16915 ft 372 kts 121°
2026-05-09 07:14 -1.07945 -49.28419 16428 ft 369 kts 121°
2026-05-09 07:14 -1.09340 -49.26274 15937 ft 367 kts 121°
2026-05-09 07:15 -1.10725 -49.24140 15453 ft 365 kts 121°
2026-05-09 07:15 -1.12099 -49.22017 14959 ft 363 kts 121°
2026-05-09 07:15 -1.13468 -49.19903 14488 ft 361 kts 121°
2026-05-09 07:15 -1.14830 -49.17801 13999 ft 360 kts 122°
2026-05-09 07:16 -1.16190 -49.15708 13488 ft 358 kts 122°
2026-05-09 07:16 -1.17542 -49.13625 12966 ft 355 kts 122°
2026-05-09 07:16 -1.18881 -49.11559 12465 ft 352 kts 122°
2026-05-09 07:16 -1.20204 -49.09514 11958 ft 349 kts 122°
2026-05-09 07:17 -1.21516 -49.07488 11440 ft 346 kts 122°
2026-05-09 07:17 -1.22822 -49.05475 10923 ft 344 kts 122°
2026-05-09 07:17 -1.24118 -49.03478 10417 ft 341 kts 122°
2026-05-09 07:17 -1.25392 -49.01513 10198 ft 330 kts 122°
2026-05-09 07:18 -1.26613 -48.99631 10088 ft 317 kts 122°
2026-05-09 07:18 -1.27787 -48.97819 9958 ft 304 kts 122°
2026-05-09 07:18 -1.28912 -48.96078 9853 ft 293 kts 122°
2026-05-09 07:18 -1.30004 -48.94389 9593 ft 287 kts 122°
2026-05-09 07:19 -1.31085 -48.92719 9202 ft 286 kts 122°
2026-05-09 07:19 -1.32154 -48.91068 8666 ft 280 kts 122°
2026-05-09 07:19 -1.33204 -48.89445 8247 ft 278 kts 122°
2026-05-09 07:19 -1.34250 -48.87827 7872 ft 276 kts 122°
2026-05-09 07:20 -1.35287 -48.86223 7493 ft 274 kts 122°
2026-05-09 07:20 -1.36321 -48.84628 7136 ft 272 kts 122°
2026-05-09 07:20 -1.37345 -48.83049 6773 ft 270 kts 122°
2026-05-09 07:20 -1.38361 -48.81481 6418 ft 268 kts 122°
2026-05-09 07:21 -1.39371 -48.79923 6049 ft 266 kts 122°
2026-05-09 07:21 -1.40371 -48.78381 5693 ft 264 kts 122°
2026-05-09 07:21 -1.41367 -48.76846 5337 ft 262 kts 122°
2026-05-09 07:21 -1.42350 -48.75325 5047 ft 260 kts 121°
2026-05-09 07:22 -1.43334 -48.73804 4541 ft 264 kts 121°
2026-05-09 07:22 -1.44325 -48.72275 4183 ft 260 kts 121°
2026-05-09 07:22 -1.45308 -48.70765 3733 ft 260 kts 121°
2026-05-09 07:22 -1.46252 -48.69277 3464 ft 252 kts 116°
2026-05-09 07:23 -1.46991 -48.67736 3320 ft 240 kts 114°
2026-05-09 07:23 -1.47694 -48.66270 3208 ft 228 kts 114°
2026-05-09 07:23 -1.48362 -48.64883 3106 ft 216 kts 114°
2026-05-09 07:23 -1.48998 -48.63559 3016 ft 207 kts 114°
2026-05-09 07:24 -1.49608 -48.62286 2919 ft 199 kts 114°
2026-05-09 07:24 -1.50041 -48.61016 2830 ft 190 kts 92°
2026-05-09 07:24 -1.49796 -48.59750 2711 ft 188 kts 63°
2026-05-09 07:24 -1.48970 -48.58759 2548 ft 183 kts 48°
2026-05-09 07:25 -1.48097 -48.57884 2440 ft 171 kts 48°
2026-05-09 07:25 -1.47284 -48.57065 2300 ft 163 kts 48°
2026-05-09 07:25 -1.46514 -48.56288 2133 ft 151 kts 48°
2026-05-09 07:25 -1.45794 -48.55561 1944 ft 144 kts 48°
2026-05-09 07:26 -1.45102 -48.54863 1774 ft 138 kts 48°
2026-05-09 07:26 -1.44438 -48.54192 1598 ft 135 kts 48°
2026-05-09 07:26 -1.43783 -48.53531 1419 ft 133 kts 48°
2026-05-09 07:26 -1.43132 -48.52874 1241 ft 133 kts 48°
2026-05-09 07:27 -1.42480 -48.52215 1065 ft 133 kts 47°
2026-05-09 07:27 -1.41829 -48.51558 897 ft 133 kts 48°
2026-05-09 07:27 -1.41180 -48.50903 727 ft 134 kts 47°
2026-05-09 07:27 -1.40526 -48.50240 554 ft 135 kts 47°
2026-05-09 07:28 -1.39862 -48.49570 386 ft 137 kts 46°
2026-05-09 07:28 -1.39193 -48.48892 198 ft 137 kts 46°
2026-05-09 07:28 -1.38526 -48.48222 58 ft 135 kts 46°
2026-05-09 07:28 -1.37884 -48.47575 55 ft 124 kts 46°
2026-05-09 07:29 -1.37264 -48.46952 317 ft 137 kts 45°
2026-05-09 07:29 -1.36521 -48.46227 937 ft 160 kts 45°
2026-05-09 07:29 -1.35656 -48.45522 1742 ft 166 kts 33°
2026-05-09 07:29 -1.34531 -48.45175 2490 ft 172 kts 10°
2026-05-09 07:30 -1.33324 -48.45083 3085 ft 177 kts
2026-05-09 07:30 -1.32066 -48.44983 3596 ft 186 kts
2026-05-09 07:30 -1.30744 -48.44738 3889 ft 203 kts 22°
2026-05-09 07:30 -1.29297 -48.44400 3954 ft 221 kts 12°
2026-05-09 07:31 -1.27753 -48.44220 3979 ft 225 kts 10°
2026-05-09 07:31 -1.26195 -48.44065 3988 ft 225 kts
2026-05-09 07:31 -1.24636 -48.43909 3993 ft 225 kts
2026-05-09 07:31 -1.23072 -48.43812 3985 ft 227 kts 359°
2026-05-09 07:32 -1.21580 -48.44338 3989 ft 234 kts 325°
2026-05-09 07:32 -1.20559 -48.45608 3988 ft 239 kts 294°
2026-05-09 07:32 -1.20250 -48.47224 3986 ft 239 kts 264°
2026-05-09 07:32 -1.20723 -48.48794 3986 ft 237 kts 235°
2026-05-09 07:33 -1.21831 -48.49968 3986 ft 232 kts 214°
2026-05-09 07:33 -1.24374 -48.51978 3990 ft 233 kts 215°
2026-05-09 07:33 -1.25643 -48.52986 3982 ft 233 kts 215°
2026-05-09 07:34 -1.26911 -48.53994 3987 ft 233 kts 215°
2026-05-09 07:34 -1.28179 -48.55003 3984 ft 233 kts 215°
2026-05-09 07:34 -1.29448 -48.56014 3984 ft 233 kts 215°
2026-05-09 07:34 -1.30718 -48.57027 3981 ft 234 kts 215°
2026-05-09 07:35 -1.31986 -48.58042 3982 ft 233 kts 215°
2026-05-09 07:35 -1.33252 -48.59055 3983 ft 234 kts 215°
2026-05-09 07:35 -1.34520 -48.60071 3984 ft 234 kts 215°
2026-05-09 07:35 -1.35791 -48.61085 3988 ft 234 kts 215°
2026-05-09 07:36 -1.37055 -48.62092 3767 ft 232 kts 215°
2026-05-09 07:36 -1.38316 -48.63097 3462 ft 231 kts 216°
2026-05-09 07:36 -1.39570 -48.64097 3165 ft 231 kts 216°
2026-05-09 07:36 -1.40803 -48.65084 3022 ft 230 kts 216°
2026-05-09 07:37 -1.42053 -48.66082 3010 ft 231 kts 216°
2026-05-09 07:37 -1.43332 -48.67052 2970 ft 229 kts 206°
2026-05-09 07:37 -1.44806 -48.67505 2762 ft 218 kts 177°
2026-05-09 07:37 -1.46273 -48.67252 2706 ft 213 kts 152°
2026-05-09 07:38 -1.47463 -48.66412 2711 ft 209 kts 128°
2026-05-09 07:38 -1.48208 -48.65186 2711 ft 207 kts 113°
2026-05-09 07:38 -1.48829 -48.63887 2707 ft 207 kts 114°
2026-05-09 07:38 -1.49439 -48.62585 2711 ft 207 kts 109°
2026-05-09 07:39 -1.49718 -48.61193 2705 ft 201 kts 90°
2026-05-09 07:39 -1.49507 -48.59859 2701 ft 191 kts 71°
2026-05-09 07:39 -1.48883 -48.58709 2669 ft 189 kts 53°
2026-05-09 07:39 -1.47982 -48.57767 2514 ft 185 kts 48°
2026-05-09 07:40 -1.47097 -48.56876 2292 ft 175 kts 47°
2026-05-09 07:40 -1.46280 -48.56053 2074 ft 160 kts 47°
2026-05-09 07:40 -1.45525 -48.55291 1876 ft 149 kts 47°
2026-05-09 07:40 -1.44820 -48.54579 1701 ft 138 kts 48°
2026-05-09 07:41 -1.44153 -48.53905 1519 ft 134 kts 47°
2026-05-09 07:41 -1.43500 -48.53246 1338 ft 133 kts 48°
2026-05-09 07:41 -1.42852 -48.52591 1167 ft 133 kts 48°
2026-05-09 07:41 -1.42203 -48.51935 999 ft 132 kts 47°
2026-05-09 07:42 -1.41558 -48.51280 822 ft 132 kts 47°
2026-05-09 07:42 -1.40904 -48.50626 647 ft 134 kts 47°
2026-05-09 07:42 -1.40258 -48.49952 463 ft 135 kts 47°
2026-05-09 07:42 -1.39588 -48.49286 310 ft 137 kts 46°
2026-05-09 07:43 -1.38916 -48.48615 104 ft 136 kts 46°
2026-05-09 07:43 -1.38270 -48.47961 51 ft 121 kts 45°
2026-05-09 07:43 -1.37852 -48.47542 48 ft 51 kts 45°
2026-05-09 07:43 -1.37618 -48.47306 51 ft 45 kts 45°
2026-05-09 07:44 -1.37439 -48.47128 54 ft 19 kts 44°
2026-05-09 07:44 -1.37386 -48.47083 55 ft 2 kts 117°
2026-05-09 07:44 -1.37409 -48.47090 51 ft 7 kts 214°
2026-05-09 07:44 -1.37468 -48.47151 54 ft 17 kts 229°
2026-05-09 07:45 -1.37556 -48.47245 53 ft 19 kts 225°
2026-05-09 07:45 -1.37659 -48.47348 50 ft 23 kts 225°
2026-05-09 07:45 -1.37777 -48.47465 49 ft 25 kts 225°
2026-05-09 07:45 -1.37885 -48.47575 47 ft 21 kts 225°
2026-05-09 07:46 -1.38019 -48.47628 48 ft 22 kts 185°
2026-05-09 07:46 -1.38170 -48.47639 51 ft 22 kts 187°
2026-05-09 07:46 -1.38326 -48.47654 52 ft 23 kts 185°
2026-05-09 07:46 -1.38490 -48.47667 54 ft 24 kts 184°
2026-05-09 07:47 -1.38657 -48.47681 57 ft 24 kts 186°
2026-05-09 07:47 -1.38828 -48.47696 57 ft 25 kts 185°
2026-05-09 07:47 -1.38960 -48.47707 58 ft 15 kts 184°
2026-05-09 07:47 -1.39027 -48.47735 55 ft 7 kts 249°
2026-05-09 07:48 -1.39024 -48.47782 53 ft 7 kts 275°
2026-05-09 07:48 -1.39022 -48.47806 56 ft 0 kts 275°
2026-05-09 07:48 -1.39022 -48.47808 56 ft 1 kts 271°
2026-05-09 07:49 -1.39027 -48.47814 55 ft 1 kts 230°
2026-05-09 07:49 -1.39033 -48.47820 52 ft 1 kts 224°
2026-05-09 07:49 -1.39045 -48.47837 53 ft 4 kts 246°
2026-05-09 07:50 -1.39045 -48.47839 53 ft 4 kts 250°
2026-05-09 07:50 -1.39046 -48.47841 50 ft 0 kts 256°
2026-05-09 07:50 -1.39045 -48.47844 50 ft 1 kts 266°
2026-05-09 07:50 -1.39043 -48.47871 51 ft 5 kts 281°
2026-05-09 07:51 -1.39037 -48.47903 57 ft 3 kts 282°
2026-05-09 07:51 -1.39036 -48.47908 57 ft 0 kts 282°